Regional Weather Roundup
Issued by NWS Sterling, VA

Home | Current Version | Previous Version | Text Only | Print | Product List | Glossary Off
Versions: 1 2 3 4 5 6 7 8 9 10 11 12 13 14 15 16 17 18 19 20 21 22 23 24 25 26 27 28 29 30 31 32 33 34 35 36 37 38 39 40 41 42 43 44 45 46 47 48 49 50

660
ASUS41 KLWX 200510
RWRLWX

REGIONAL WEATHER ROUNDUP
NATIONAL WEATHER SERVICE BALTIMORE MD/WASHINGTON DC
1200 AM EST MON FEB 20 2017

Note: "FAIR" indicates few or no clouds below 12,000 feet
with no significant weather and/or obstructions to visibility.
 TC=TEMPERATURE CELSIUS

 * =Non NWS site. Station does not report precipitation (e.g. rain,
    snow, etc.), thunder, or fog.

DCZ001-MDZ009-015-VAZ040>042-051-053>054-200600-
WASHINGTON METRO

CITY           SKY/WX    TMP DP  RH WIND       PRES   REMARKS
WASHINGTON NAT MOCLDY    55  42  61 VRB3      30.06R
DULLES         CLEAR     52  40  63 NW7       30.06S
ANDREWS AFB    CLEAR     53  41  63 W6        30.04R
FT BELVOIR     CLEAR     54  41  62 CALM      30.06R
QUANTICO       CLEAR     50  41  71 CALM      30.08R
COLLEGE PARK*  CLEAR     52  39  62 CALM      30.04S
LEESBURG*      CLEAR     52  45  76 MISG      30.07S
MANASSAS*      CLEAR     47  39  74 CALM      30.07R
GAITHERSBURG*  CLEAR     54  39  58 NW13G18   30.08S

$$

MDZ006>007-011-014-200600-
BALTIMORE METRO

CITY           SKY/WX    TMP DP  RH WIND       PRES   REMARKS
BWI AIRPORT    PTCLDY    50  42  74 W8        30.03R
MD SCIENCE CTR   N/A     55  38  52 MISG      30.04R
ANNAPOLIS      PTCLDY    53  41  63 W3        30.03R
FORT MEADE*    CLEAR     46  39  76 W3        30.06S

$$

MDZ012-015-019>023-200600-
MARYLAND EASTERN SHORE

CITY           SKY/WX    TMP DP  RH WIND       PRES   REMARKS
OCEAN CITY     CLEAR     55  40  56 NW7       30.01R
SALISBURY      CLEAR     55  41  59 W6        30.01S
BAY BRIDGE AP* PTCLDY    50  41  71 W5        30.03R
CAMBRIDGE*     PTCLDY    52  41  66 W5        30.03R
EASTON*        CLEAR     54  40  59 NW7       30.06S

$$

MDZ017>025-200600-
SOUTHERN MARYLAND

CITY           SKY/WX    TMP DP  RH WIND       PRES   REMARKS
PATUXENT RIVER CLEAR     55  43  63 W10       30.04S
ST INIGOES     CLEAR     53  40  61 NW6       30.04S
LEONARDTOWN*   CLEAR     54  39  58 W6        30.06S

$$

MDZ003>005-200600-
NORTH CENTRAL MARYLAND

CITY           SKY/WX    TMP DP  RH WIND       PRES   REMARKS
FREDERICK*     PTCLDY    52  43  71 NW7       30.08S
HAGERSTOWN APT CLEAR     55  42  61 NW12G22   30.07R
WESTMINSTER*   CLEAR     54  43  66 W9        30.05R

$$

MDZ501>502-200600-
WESTERN MARYLAND

CITY           SKY/WX    TMP DP  RH WIND       PRES   REMARKS
OAKLAND*       CLOUDY    41  41 100 W8        30.13S FOG
CUMBERLAND*    CLEAR     54  43  66 NW9G17    30.16R

$$

VAZ025>031-200600-
SHENANDOAH VALLEY

CITY           SKY/WX    TMP DP  RH WIND       PRES   REMARKS
WINCHESTER*    CLEAR     52  41  66 NW7       30.09R
FRONT ROYAL*   CLEAR     52  37  58 SW3       30.08S
LURAY*         CLEAR     45  39  81 S3        30.11R
NEW MARKET*    CLEAR     38  33  82 CALM      30.11R
STAUNTON*      CLEAR     36  32  87 CALM      30.14R
WAYNESBORO*    CLEAR     48  38  68 W8        30.11S

$$

WVZ021-048>050-054>055-200600-
EASTERN WEST VIRGINIA PANHANDLE

CITY           SKY/WX    TMP DP  RH WIND       PRES   REMARKS
MARTINSBURG    PTCLDY    54  42  64 W14       30.08R
PETERSBURG*    CLEAR     38  36  91 CALM      30.16R

$$

VAZ036>039-050-200600-
CENTRAL FOOTHILLS

CITY           SKY/WX    TMP DP  RH WIND       PRES   REMARKS
CHARLOTTESVILL CLEAR     60  33  36 NW10G20   30.07S
CULPEPER*      CLEAR     42  35  75 SW3       30.08R
ORANGE*        PTCLDY    41  34  75 CALM      30.09R
GORDONSVILLE*  PTCLDY    41  37  83 CALM      30.07S
WARRENTON*     PTCLDY    43  34  69 CALM      30.07R

$$

VAZ055>057-200600-
NORTH AND CENTRAL PIEDMONT

CITY           SKY/WX    TMP DP  RH WIND       PRES   REMARKS
FREDERICKSBRG* CLEAR     48  38  69 CALM      30.06S
STAFFORD*      CLEAR     45  37  72 CALM      30.10S

$$

NCZ024-NYZ072-PAZ021-071-VAZ022-071-200600-
OTHER REGIONAL OBSERVATIONS

CITY           SKY/WX    TMP DP  RH WIND       PRES   REMARKS
NEW YORK CITY  CLEAR     54  32  43 VRB3      30.00R
PHILADELPHIA   CLEAR     53  33  46 N7        30.00R
PITTSBURGH     PTCLDY    47  42  83 W5        30.14S
ROANOKE        CLEAR     50  40  68 NW7       30.15S
RICHMOND       CLEAR     53  39  59 N9        30.06R
RALEIGH        CLEAR     54  40  59 CALM      30.10R

$$

ANZ530>537-200600-
MARINE OBSERVATIONS

STATION/POSITION TIME  TEMP    WIND        PRES
                       AIR SEA DIR/SP/G
                 (UTC) (F)     (DEG/KT/KT) (MB)
THOMAS PT LIGHT  0500   57 40  290/ 14/ 14   N/A
BALT KEY BRIDGE  0448   56     260/  7/  8 1016.8R
COVE POINT       0448   57     320/ 14/ 18 1017.6R
LEWISETTA        0448   57 45  320/  9/ 11 1017.1R
SOLOMONS ISLAND  0448   57 43  300/  7/ 11   N/A
PINEY POINT      0448          330/  9/  9   N/A

$$





USA.gov is the U.S. government's official web portal to all federal, state and local government web resources and services.